Shenandoah, IA

1:52 AM CDT on March 23, 2017 (GMT -0500)
Shenandoah Municipal

Weather History for KSDA - December, 2011

Change the Weather History Date:

Tuesday, December 20, 2011

  Actual Average Record
Temperature  
Mean Temperature 34 °F -  
Max Temperature 37 °F 33 °F 58 °F (1967)
Min Temperature 30 °F 15 °F -22 °F (1983)
Degree Days  
Heating Degree Days 32    
Moisture  
Dew Point 25 °F    
Average Humidity 75    
Maximum Humidity 80    
Minimum Humidity 65    
Precipitation  
Precipitation 0.00 in - - ()
Sea Level Pressure  
Sea Level Pressure 29.98 in    
Wind  
Wind Speed 9 mph (NNE)    
Max Wind Speed 22 mph    
Max Gust Speed 25 mph    
Visibility 9 miles    
Events Snow    
Averages and records for this station are not official NWS values.
T = Trace of Precipitation, MM = Missing Value Source: NWS Daily Summary

Daily Weather History Graph

Daily Weather History Graph

Search for Another Location

Airport or City:

Trip Planner

Search our weather history database for the weather conditions in past years. The results will help you decide how hot, cold, wet, or windy it might be!

Date:

Astronomy

Dec. 20, 2011 Rise Set
Actual Time 7:41 AM CST 4:56 PM CST
Civil Twilight 7:10 AM CST 5:27 PM CST
Nautical Twilight 6:36 AM CST 6:02 PM CST
Astronomical Twilight 6:02 AM CST 6:35 PM CST
Moon 3:03 AM CST (12/20) 1:34 PM CST (12/20)
Length of Visible Light 10h 17m
Length of Day
9h 15m
Waning Crescent, 21% of the Moon is Illuminated
Dec 20
Waning Crescent
Dec 24
New
Jan 1
First Quarter
Jan 9
Full
Jan 16
Last Quarter

Hourly Weather History & Observations

Time (CST) Temp. Windchill Dew Point Humidity Pressure Visibility Wind Dir Wind Speed Gust Speed Precip Events Conditions
12:35 AM 32.0 °F 27.5 °F 23.0 °F 69% 30.24 in 10.0 mi NE 4.6 mph - N/A   Mostly Cloudy
12:55 AM 30.2 °F 24.3 °F 23.0 °F 75% 30.23 in 10.0 mi NE 5.8 mph - N/A   Mostly Cloudy
1:15 AM 30.2 °F 21.9 °F 23.0 °F 75% 30.22 in 10.0 mi NNE 9.2 mph - N/A   Mostly Cloudy
1:35 AM 30.2 °F 21.3 °F 23.0 °F 75% 30.20 in 10.0 mi NE 10.4 mph - N/A   Mostly Cloudy
1:55 AM 30.2 °F 21.9 °F 24.8 °F 80% 30.19 in 10.0 mi NE 9.2 mph - N/A   Mostly Cloudy
2:15 AM 30.2 °F 19.8 °F 24.8 °F 80% 30.16 in 10.0 mi NNE 13.8 mph - N/A   Mostly Cloudy
2:35 AM 30.2 °F 19.3 °F 24.8 °F 80% 30.14 in 10.0 mi NE 15.0 mph 20.7 mph N/A   Mostly Cloudy
2:55 AM 30.2 °F 18.1 °F 24.8 °F 80% 30.12 in 10.0 mi NE 18.4 mph 25.3 mph N/A   Mostly Cloudy
3:15 AM 30.2 °F 17.8 °F 24.8 °F 80% 30.11 in 10.0 mi NE 19.6 mph 24.2 mph N/A   Scattered Clouds
3:35 AM 30.2 °F 17.1 °F 23.0 °F 75% 30.09 in 10.0 mi NE 21.9 mph - N/A   Mostly Cloudy
3:55 AM 30.2 °F 18.9 °F 23.0 °F 75% 30.09 in 10.0 mi NE 16.1 mph 21.9 mph N/A   Overcast
4:15 AM 30.2 °F 18.9 °F 23.0 °F 75% 30.08 in 10.0 mi NE 16.1 mph 24.2 mph N/A   Overcast
4:35 AM 30.2 °F 19.8 °F 23.0 °F 75% 30.08 in 10.0 mi NE 13.8 mph 20.7 mph N/A   Overcast
4:55 AM 30.2 °F 20.8 °F 23.0 °F 75% 30.09 in 10.0 mi NE 11.5 mph - N/A   Overcast
5:35 AM 30.2 °F 24.3 °F 23.0 °F 75% 30.09 in 10.0 mi ENE 5.8 mph - N/A   Overcast
6:15 AM 30.2 °F 24.3 °F 23.0 °F 75% 30.09 in 10.0 mi NE 5.8 mph - N/A   Overcast
7:15 AM 30.2 °F 23.4 °F 23.0 °F 75% 30.09 in 10.0 mi NNE 6.9 mph - N/A   Overcast
7:55 AM 30.2 °F 21.3 °F 23.0 °F 75% 30.07 in 10.0 mi NNE 10.4 mph - N/A   Mostly Cloudy
8:15 AM 30.2 °F 20.2 °F 23.0 °F 75% 30.05 in 10.0 mi NNE 12.7 mph - N/A   Mostly Cloudy
8:35 AM 30.2 °F 21.3 °F 23.0 °F 75% 30.05 in 10.0 mi NNE 10.4 mph - N/A   Mostly Cloudy
9:35 AM 30.2 °F 21.9 °F 23.0 °F 75% 30.07 in 10.0 mi NNE 9.2 mph - N/A   Overcast
10:15 AM 30.2 °F 21.3 °F 23.0 °F 75% 30.07 in 10.0 mi NNE 10.4 mph - N/A   Scattered Clouds
10:35 AM 30.2 °F 21.9 °F 23.0 °F 75% 30.06 in 10.0 mi NNE 9.2 mph - N/A   Scattered Clouds
10:55 AM 30.2 °F 21.9 °F 24.8 °F 80% 30.06 in 10.0 mi North 9.2 mph - N/A   Scattered Clouds
11:15 AM 30.2 °F 21.3 °F 24.8 °F 80% 30.04 in 10.0 mi NNE 10.4 mph - N/A   Scattered Clouds
11:55 AM 32.0 °F 23.0 °F 24.8 °F 75% 30.00 in 10.0 mi NNE 11.5 mph - N/A   Clear
12:15 PM 33.8 °F 25.3 °F 24.8 °F 70% 29.98 in 10.0 mi NNE 11.5 mph - N/A   Clear
12:35 PM 33.8 °F 26.4 °F 24.8 °F 70% 29.97 in 10.0 mi NE 9.2 mph - N/A   Clear
12:55 PM 33.8 °F 25.8 °F 24.8 °F 70% 29.95 in 10.0 mi NE 10.4 mph - N/A   Clear
1:15 PM 35.6 °F 28.0 °F 24.8 °F 65% 29.94 in 10.0 mi NNE 10.4 mph - N/A   Scattered Clouds
1:35 PM 35.6 °F 28.6 °F 24.8 °F 65% 29.93 in 10.0 mi NNE 9.2 mph - N/A   Mostly Cloudy
2:15 PM 35.6 °F 29.2 °F 26.6 °F 70% 29.90 in 10.0 mi North 8.1 mph - N/A   Mostly Cloudy
2:35 PM 37.4 °F 31.4 °F 26.6 °F 65% 29.90 in 10.0 mi NE 8.1 mph - N/A   Overcast
2:55 PM 35.6 °F 28.6 °F 26.6 °F 70% 29.89 in 10.0 mi NNE 9.2 mph - N/A   Overcast
3:15 PM 35.6 °F 31.7 °F 26.6 °F 70% 29.89 in 10.0 mi NE 4.6 mph - N/A   Overcast
3:35 PM 35.6 °F 29.2 °F 26.6 °F 70% 29.88 in 10.0 mi NNE 8.1 mph - N/A   Overcast
3:55 PM 35.6 °F 29.2 °F 26.6 °F 70% 29.88 in 10.0 mi NNE 8.1 mph - N/A   Overcast
4:35 PM 33.8 °F 29.6 °F 26.6 °F 75% 29.88 in 10.0 mi NNE 4.6 mph - N/A   Overcast
4:55 PM 33.8 °F 29.6 °F 26.6 °F 75% 29.87 in 10.0 mi NNE 4.6 mph - N/A   Overcast
5:15 PM 33.8 °F 30.8 °F 26.6 °F 75% 29.87 in 10.0 mi NNE 3.5 mph - N/A   Overcast
5:55 PM 33.8 °F 30.8 °F 26.6 °F 75% 29.86 in 5.0 mi NNE 3.5 mph - N/A Snow Light Snow
6:15 PM 33.8 °F 30.8 °F 26.6 °F 75% 29.86 in 3.0 mi NNE 3.5 mph - N/A Snow Light Snow
6:35 PM 33.8 °F - 26.6 °F 75% 29.86 in 4.0 mi Calm Calm - N/A Snow Light Snow
7:15 PM 33.8 °F - 26.6 °F 75% 29.86 in 10.0 mi Calm Calm - N/A   Overcast
7:35 PM 33.8 °F - 26.6 °F 75% 29.85 in 10.0 mi Calm Calm - N/A   Overcast
7:55 PM 33.8 °F - 26.6 °F 75% 29.85 in 3.0 mi Calm Calm - N/A Snow Light Snow
8:15 PM 32.0 °F 26.4 °F 26.6 °F 80% 29.84 in 4.0 mi NNW 5.8 mph - N/A Snow Light Snow
8:35 PM 32.0 °F 28.7 °F 26.6 °F 80% 29.84 in 10.0 mi North 3.5 mph - N/A   Overcast
8:55 PM 32.0 °F 27.5 °F 26.6 °F 80% 29.84 in 10.0 mi NNW 4.6 mph - N/A   Overcast
9:35 PM 32.0 °F - 26.6 °F 80% 29.83 in 7.0 mi Calm Calm - N/A   Overcast
9:55 PM 32.0 °F - 26.6 °F 80% 29.82 in 10.0 mi Calm Calm - N/A   Overcast
10:15 PM 32.0 °F - 26.6 °F 80% 29.81 in 10.0 mi Calm Calm - N/A   Overcast
10:35 PM 32.0 °F - 26.6 °F 80% 29.82 in 10.0 mi Calm Calm - N/A   Overcast
10:55 PM 32.0 °F - 26.6 °F 80% 29.82 in 10.0 mi Calm Calm - N/A   Overcast
11:15 PM 32.0 °F - 26.6 °F 80% 29.82 in 10.0 mi Calm Calm - N/A   Overcast
11:35 PM 32.0 °F 28.7 °F 26.6 °F 80% 29.82 in 10.0 mi West 3.5 mph - N/A   Overcast
11:55 PM 32.0 °F 27.5 °F 26.6 °F 80% 29.82 in 10.0 mi West 4.6 mph - N/A   Overcast